Time,TemperatureF,DewpointF,PressureIn,WindDirection,WindDirectionDegrees,WindSpeedMPH,WindSpeedGustMPH,Humidity,HourlyPrecipIn,Conditions,Clouds,dailyrainin,SoftwareType,DateUTC
2013-03-01 00:02:00,40.0,36.0,30.10,NNE,29,1.0,3.0,86,0.00,,,0.00,,2013-03-01 06:02:00,
2013-03-01 00:11:00,40.0,36.0,30.10,NNE,29,1.0,3.0,86,0.00,,,0.00,,2013-03-01 06:11:00,
2013-03-01 00:22:00,40.0,35.0,30.10,North,5,2.0,5.0,81,0.00,,,0.00,,2013-03-01 06:22:00,
2013-03-01 00:32:00,40.0,35.0,30.11,North,9,2.0,3.0,82,0.00,,,0.00,,2013-03-01 06:32:00,
2013-03-01 00:42:00,40.0,35.0,30.11,North,9,2.0,3.0,82,0.00,,,0.00,,2013-03-01 06:42:00,
2013-03-01 00:52:00,40.0,35.0,30.11,North,9,0.0,4.0,82,0.00,,,0.00,,2013-03-01 06:52:00,
2013-03-01 01:01:00,39.0,35.0,30.11,North,9,0.0,0.0,86,0.00,,,0.00,,2013-03-01 07:01:00,
2013-03-01 01:11:00,39.0,35.0,30.11,North,9,0.0,0.0,86,0.00,,,0.00,,2013-03-01 07:11:00,
2013-03-01 01:22:00,40.0,34.0,30.11,North,9,0.0,2.0,80,0.00,,,0.00,,2013-03-01 07:22:00,
2013-03-01 01:32:00,38.0,34.0,30.11,NW,307,2.0,3.0,85,0.00,,,0.00,,2013-03-01 07:32:00,
2013-03-01 01:42:00,38.0,34.0,30.11,NW,307,2.0,3.0,85,0.00,,,0.00,,2013-03-01 07:42:00,
2013-03-01 01:52:00,39.0,34.0,30.11,East,98,1.0,5.0,81,0.00,,,0.00,,2013-03-01 07:52:00,
2013-03-01 02:02:00,40.0,34.0,30.11,WNW,298,0.0,3.0,80,0.00,,,0.00,,2013-03-01 08:02:00,
2013-03-01 02:11:00,40.0,34.0,30.11,WNW,298,0.0,3.0,80,0.00,,,0.00,,2013-03-01 08:11:00,
2013-03-01 02:22:00,40.0,34.0,30.10,WNW,290,1.0,3.0,80,0.00,,,0.00,,2013-03-01 08:22:00,
2013-03-01 02:32:00,38.0,34.0,30.10,North,5,5.0,7.0,84,0.00,,,0.00,,2013-03-01 08:32:00,
2013-03-01 02:42:00,38.0,34.0,30.10,North,5,5.0,7.0,84,0.00,,,0.00,,2013-03-01 08:42:00,
2013-03-01 02:53:00,38.0,34.0,30.10,North,11,4.0,7.0,85,0.00,,,0.00,,2013-03-01 08:53:00,
2013-03-01 03:02:00,38.0,34.0,30.09,North,5,4.0,6.0,86,0.00,,,0.00,,2013-03-01 09:02:00,
2013-03-01 03:12:00,38.0,34.0,30.09,North,5,4.0,6.0,86,0.00,,,0.00,,2013-03-01 09:12:00,
2013-03-01 03:22:00,37.0,33.0,30.09,NNW,342,3.0,4.0,86,0.00,,,0.00,,2013-03-01 09:22:00,
2013-03-01 03:32:00,37.0,33.0,30.09,North,350,1.0,4.0,86,0.00,,,0.00,,2013-03-01 09:32:00,
2013-03-01 03:42:00,37.0,33.0,30.09,North,350,1.0,4.0,86,0.00,,,0.00,,2013-03-01 09:42:00,
2013-03-01 03:52:00,37.0,33.0,30.09,North,350,1.0,3.0,86,0.00,,,0.00,,2013-03-01 09:52:00,
2013-03-01 04:02:00,37.0,33.0,30.09,North,355,4.0,5.0,86,0.00,,,0.00,,2013-03-01 10:02:00,
2013-03-01 04:11:00,37.0,33.0,30.09,North,355,4.0,5.0,86,0.00,,,0.00,,2013-03-01 10:11:00,
2013-03-01 04:22:00,37.0,34.0,30.10,North,355,3.0,5.0,88,0.00,,,0.00,,2013-03-01 10:22:00,
2013-03-01 04:32:00,37.0,34.0,30.10,North,355,2.0,4.0,88,0.00,,,0.00,,2013-03-01 10:32:00,
2013-03-01 04:42:00,37.0,34.0,30.10,North,355,2.0,4.0,88,0.00,,,0.00,,2013-03-01 10:42:00,
2013-03-01 04:53:00,37.0,34.0,30.10,North,355,5.0,6.0,88,0.00,,,0.00,,2013-03-01 10:53:00,
2013-03-01 05:01:00,36.0,33.0,30.11,NNE,17,6.0,7.0,89,0.00,,,0.00,,2013-03-01 11:01:00,
2013-03-01 05:11:00,36.0,33.0,30.11,NNE,17,6.0,7.0,89,0.00,,,0.00,,2013-03-01 11:11:00,
2013-03-01 05:22:00,36.0,33.0,30.11,NE,34,5.0,7.0,90,0.00,,,0.00,,2013-03-01 11:22:00,
2013-03-01 05:32:00,36.0,33.0,30.11,NNE,27,4.0,5.0,89,0.00,,,0.00,,2013-03-01 11:32:00,
2013-03-01 05:42:00,36.0,33.0,30.11,NNE,27,4.0,5.0,89,0.00,,,0.00,,2013-03-01 11:42:00,
2013-03-01 05:52:00,36.0,33.0,30.12,NNE,22,6.0,9.0,87,0.00,,,0.00,,2013-03-01 11:52:00,
2013-03-01 06:01:00,36.0,33.0,30.13,North,11,5.0,7.0,87,0.00,,,0.00,,2013-03-01 12:01:00,
2013-03-01 06:11:00,36.0,33.0,30.13,North,11,5.0,7.0,87,0.00,,,0.00,,2013-03-01 12:11:00,
2013-03-01 06:21:00,36.0,32.0,30.13,NNE,32,4.0,7.0,86,0.00,,,0.00,,2013-03-01 12:21:00,
2013-03-01 06:32:00,35.0,31.0,30.14,NNE,16,4.0,6.0,85,0.00,,,0.00,,2013-03-01 12:32:00,
2013-03-01 06:42:00,35.0,31.0,30.14,NNE,16,4.0,6.0,85,0.00,,,0.00,,2013-03-01 12:42:00,
2013-03-01 06:52:00,35.0,31.0,30.14,NNE,22,4.0,7.0,84,0.00,,,0.00,,2013-03-01 12:52:00,
2013-03-01 07:01:00,35.0,31.0,30.14,North,5,5.0,8.0,84,0.00,,,0.00,,2013-03-01 13:01:00,
2013-03-01 07:11:00,35.0,31.0,30.14,North,5,5.0,8.0,84,0.00,,,0.00,,2013-03-01 13:11:00,
2013-03-01 07:21:00,35.0,30.0,30.14,NNE,28,5.0,8.0,82,0.00,,,0.00,,2013-03-01 13:21:00,
2013-03-01 07:32:00,35.0,30.0,30.16,North,5,3.0,5.0,83,0.00,,,0.00,,2013-03-01 13:32:00,
2013-03-01 07:42:00,35.0,30.0,30.16,North,5,3.0,5.0,83,0.00,,,0.00,,2013-03-01 13:42:00,
2013-03-01 07:52:00,35.0,31.0,30.16,NNE,14,4.0,5.0,84,0.00,,,0.00,,2013-03-01 13:52:00,
2013-03-01 08:01:00,36.0,31.0,30.17,North,355,5.0,7.0,83,0.00,,,0.00,,2013-03-01 14:01:00,
2013-03-01 08:11:00,36.0,31.0,30.17,North,355,5.0,7.0,83,0.00,,,0.00,,2013-03-01 14:11:00,
2013-03-01 08:21:00,37.0,32.0,30.17,North,11,6.0,9.0,82,0.00,,,0.00,,2013-03-01 14:21:00,
2013-03-01 08:32:00,38.0,32.0,30.18,NNE,18,7.0,12.0,79,0.00,,,0.00,,2013-03-01 14:32:00,
2013-03-01 08:41:00,38.0,32.0,30.18,NNE,18,7.0,12.0,79,0.00,,,0.00,,2013-03-01 14:41:00,
2013-03-01 08:52:00,38.0,31.0,30.18,NNE,17,9.0,12.0,75,0.00,,,0.00,,2013-03-01 14:52:00,
2013-03-01 09:01:00,38.0,31.0,30.18,NE,49,9.0,13.0,75,0.00,,,0.00,,2013-03-01 15:01:00,
2013-03-01 09:11:00,39.0,32.0,30.19,North,355,10.0,13.0,75,0.00,,,0.00,,2013-03-01 15:11:00,
2013-03-01 09:21:00,39.0,32.0,30.19,North,355,10.0,13.0,75,0.00,,,0.00,,2013-03-01 15:21:00,
2013-03-01 09:31:00,39.0,32.0,30.19,North,355,10.0,13.0,75,0.00,,,0.00,,2013-03-01 15:31:00,
2013-03-01 09:42:00,39.0,32.0,30.19,North,355,10.0,13.0,75,0.00,,,0.00,,2013-03-01 15:42:00,
2013-03-01 09:52:00,40.0,32.0,30.20,North,5,8.0,12.0,74,0.00,,,0.00,,2013-03-01 15:52:00,
2013-03-01 10:01:00,39.0,31.0,30.20,North,5,10.0,12.0,73,0.00,,,0.00,,2013-03-01 16:01:00,
2013-03-01 10:11:00,39.0,31.0,30.20,North,5,10.0,12.0,73,0.00,,,0.00,,2013-03-01 16:11:00,
2013-03-01 10:21:00,39.0,31.0,30.20,North,5,8.0,14.0,74,0.00,,,0.00,,2013-03-01 16:21:00,
2013-03-01 10:32:00,40.0,32.0,30.20,North,5,8.0,14.0,73,0.00,,,0.00,,2013-03-01 16:32:00,
2013-03-01 10:42:00,40.0,32.0,30.20,North,5,8.0,14.0,73,0.00,,,0.00,,2013-03-01 16:42:00,
2013-03-01 10:52:00,40.0,32.0,30.20,NNW,345,8.0,15.0,73,0.00,,,0.00,,2013-03-01 16:52:00,
2013-03-01 11:01:00,41.0,32.0,30.20,NNW,340,10.0,14.0,69,0.00,,,0.00,,2013-03-01 17:01:00,
2013-03-01 11:11:00,41.0,32.0,30.20,NNW,340,10.0,14.0,69,0.00,,,0.00,,2013-03-01 17:11:00,
2013-03-01 11:21:00,41.0,32.0,30.19,North,360,10.0,15.0,70,0.00,,,0.00,,2013-03-01 17:21:00,
2013-03-01 11:32:00,41.0,31.0,30.20,NNE,17,9.0,16.0,68,0.00,,,0.00,,2013-03-01 17:32:00,
2013-03-01 11:41:00,41.0,31.0,30.20,NNE,17,9.0,16.0,68,0.00,,,0.00,,2013-03-01 17:41:00,
2013-03-01 11:52:00,41.0,30.0,30.19,North,349,6.0,15.0,65,0.00,,,0.00,,2013-03-01 17:52:00,
2013-03-01 12:01:00,41.0,30.0,30.19,North,360,10.0,15.0,65,0.00,,,0.00,,2013-03-01 18:01:00,
2013-03-01 12:12:00,41.0,30.0,30.19,North,360,10.0,15.0,65,0.00,,,0.00,,2013-03-01 18:12:00,
2013-03-01 12:22:00,42.0,31.0,30.18,North,5,10.0,16.0,65,0.00,,,0.00,,2013-03-01 18:22:00,
2013-03-01 12:31:00,42.0,30.0,30.18,WNW,297,8.0,14.0,62,0.00,,,0.00,,2013-03-01 18:31:00,
2013-03-01 12:42:00,42.0,30.0,30.18,WNW,297,8.0,14.0,62,0.00,,,0.00,,2013-03-01 18:42:00,
2013-03-01 12:52:00,43.0,30.0,30.17,NNW,327,6.0,14.0,60,0.00,,,0.00,,2013-03-01 18:52:00,
2013-03-01 13:01:00,43.0,30.0,30.17,NNW,346,7.0,16.0,61,0.00,,,0.00,,2013-03-01 19:01:00,
2013-03-01 13:11:00,43.0,30.0,30.17,NNW,346,7.0,16.0,61,0.00,,,0.00,,2013-03-01 19:11:00,
2013-03-01 13:21:00,42.0,30.0,30.16,NNW,347,7.0,13.0,63,0.00,,,0.00,,2013-03-01 19:21:00,
2013-03-01 13:31:00,43.0,30.0,30.16,North,349,7.0,16.0,60,0.00,,,0.00,,2013-03-01 19:31:00,
2013-03-01 13:42:00,43.0,30.0,30.16,North,349,7.0,16.0,60,0.00,,,0.00,,2013-03-01 19:42:00,
2013-03-01 13:52:00,44.0,31.0,30.15,WNW,294,7.0,16.0,59,0.00,,,0.00,,2013-03-01 19:52:00,
2013-03-01 14:01:00,44.0,30.0,30.14,NW,312,9.0,16.0,57,0.00,,,0.00,,2013-03-01 20:01:00,
2013-03-01 14:11:00,44.0,30.0,30.14,NW,312,9.0,16.0,57,0.00,,,0.00,,2013-03-01 20:11:00,
2013-03-01 14:21:00,44.0,31.0,30.14,NW,319,12.0,16.0,59,0.00,,,0.00,,2013-03-01 20:21:00,
2013-03-01 14:31:00,44.0,31.0,30.14,North,355,8.0,12.0,59,0.00,,,0.00,,2013-03-01 20:31:00,
2013-03-01 14:42:00,44.0,31.0,30.14,North,355,8.0,12.0,59,0.00,,,0.00,,2013-03-01 20:42:00,
2013-03-01 14:52:00,45.0,31.0,30.14,West,280,10.0,15.0,58,0.00,,,0.00,,2013-03-01 20:52:00,
2013-03-01 15:01:00,44.0,31.0,30.13,North,355,9.0,14.0,59,0.00,,,0.00,,2013-03-01 21:01:00,
2013-03-01 15:11:00,44.0,31.0,30.13,North,355,9.0,14.0,59,0.00,,,0.00,,2013-03-01 21:11:00,
2013-03-01 15:21:00,45.0,32.0,30.12,North,5,6.0,12.0,59,0.00,,,0.00,,2013-03-01 21:21:00,
2013-03-01 15:31:00,46.0,31.0,30.12,NW,324,10.0,14.0,56,0.00,,,0.00,,2013-03-01 21:31:00,
2013-03-01 15:42:00,46.0,31.0,30.12,NW,324,10.0,14.0,56,0.00,,,0.00,,2013-03-01 21:42:00,
2013-03-01 15:52:00,45.0,31.0,30.12,NNW,348,9.0,13.0,57,0.00,,,0.00,,2013-03-01 21:52:00,
2013-03-01 16:01:00,44.0,30.0,30.13,NNE,13,8.0,15.0,58,0.00,,,0.00,,2013-03-01 22:01:00,
2013-03-01 16:11:00,44.0,30.0,30.13,NNE,13,8.0,15.0,58,0.00,,,0.00,,2013-03-01 22:11:00,
2013-03-01 16:21:00,44.0,31.0,30.14,NNW,340,9.0,15.0,59,0.00,,,0.00,,2013-03-01 22:21:00,
2013-03-01 16:31:00,44.0,31.0,30.14,North,350,12.0,16.0,60,0.00,,,0.00,,2013-03-01 22:31:00,
2013-03-01 16:42:00,44.0,31.0,30.14,North,350,12.0,16.0,60,0.00,,,0.00,,2013-03-01 22:42:00,
2013-03-01 16:52:00,44.0,32.0,30.14,NNE,13,10.0,15.0,63,0.00,,,0.00,,2013-03-01 22:52:00,
2013-03-01 17:01:00,43.0,31.0,30.14,NNE,22,11.0,15.0,62,0.00,,,0.00,,2013-03-01 23:01:00,
2013-03-01 17:11:00,43.0,31.0,30.14,NNE,22,11.0,15.0,62,0.00,,,0.00,,2013-03-01 23:11:00,
2013-03-01 17:21:00,43.0,31.0,30.14,NNE,22,11.0,15.0,62,0.00,,,0.00,,2013-03-01 23:21:00,
2013-03-01 17:31:00,43.0,31.0,30.15,North,10,8.0,15.0,63,0.00,,,0.00,,2013-03-01 23:31:00,
2013-03-01 17:41:00,43.0,31.0,30.15,North,10,8.0,15.0,63,0.00,,,0.00,,2013-03-01 23:41:00,
2013-03-01 17:52:00,43.0,31.0,30.15,North,10,6.0,10.0,62,0.00,,,0.00,,2013-03-01 23:52:00,
2013-03-01 18:02:00,42.0,30.0,30.15,NNE,30,9.0,12.0,61,0.00,,,0.00,,2013-03-02 00:02:00,
2013-03-01 18:11:00,42.0,30.0,30.15,NNE,30,9.0,12.0,61,0.00,,,0.00,,2013-03-02 00:11:00,
2013-03-01 18:22:00,42.0,30.0,30.15,NNE,28,6.0,10.0,63,0.00,,,0.00,,2013-03-02 00:22:00,
2013-03-01 18:32:00,41.0,29.0,30.16,NNE,23,7.0,10.0,63,0.00,,,0.00,,2013-03-02 00:32:00,
2013-03-01 18:42:00,41.0,29.0,30.16,NNE,23,7.0,10.0,63,0.00,,,0.00,,2013-03-02 00:42:00,
2013-03-01 18:52:00,41.0,30.0,30.16,NNE,23,6.0,9.0,64,0.00,,,0.00,,2013-03-02 00:52:00,
2013-03-01 19:01:00,40.0,30.0,30.16,NE,35,6.0,8.0,66,0.00,,,0.00,,2013-03-02 01:01:00,
2013-03-01 19:11:00,40.0,30.0,30.16,NE,35,6.0,8.0,66,0.00,,,0.00,,2013-03-02 01:11:00,
2013-03-01 19:21:00,40.0,31.0,30.16,NE,36,5.0,9.0,69,0.00,,,0.00,,2013-03-02 01:21:00,
2013-03-01 19:31:00,39.0,30.0,30.17,NE,34,5.0,6.0,71,0.00,,,0.00,,2013-03-02 01:31:00,
2013-03-01 19:41:00,39.0,30.0,30.17,NE,34,5.0,6.0,71,0.00,,,0.00,,2013-03-02 01:41:00,
2013-03-01 19:51:00,39.0,31.0,30.16,NE,56,5.0,7.0,72,0.00,,,0.00,,2013-03-02 01:51:00,
2013-03-01 20:01:00,38.0,30.0,30.17,NE,50,5.0,7.0,72,0.00,,,0.00,,2013-03-02 02:01:00,
2013-03-01 20:11:00,38.0,30.0,30.17,NE,50,5.0,7.0,72,0.00,,,0.00,,2013-03-02 02:11:00,
2013-03-01 20:21:00,38.0,30.0,30.17,NE,50,5.0,7.0,72,0.00,,,0.00,,2013-03-02 02:21:00,
2013-03-01 20:32:00,38.0,30.0,30.18,NE,55,3.0,5.0,74,0.00,,,0.00,,2013-03-02 02:32:00,
2013-03-01 20:42:00,38.0,30.0,30.18,NE,55,3.0,5.0,74,0.00,,,0.00,,2013-03-02 02:42:00,
2013-03-01 20:52:00,37.0,30.0,30.18,NE,48,3.0,6.0,76,0.00,,,0.00,,2013-03-02 02:52:00,
2013-03-01 21:01:00,37.0,30.0,30.18,NE,49,4.0,6.0,76,0.00,,,0.00,,2013-03-02 03:01:00,
2013-03-01 21:11:00,37.0,30.0,30.18,NE,49,4.0,6.0,76,0.00,,,0.00,,2013-03-02 03:11:00,
2013-03-01 21:21:00,37.0,30.0,30.19,NE,46,3.0,5.0,76,0.00,,,0.00,,2013-03-02 03:21:00,
2013-03-01 21:32:00,37.0,30.0,30.19,NE,56,3.0,5.0,77,0.00,,,0.00,,2013-03-02 03:32:00,
2013-03-01 21:42:00,37.0,30.0,30.19,NE,56,3.0,5.0,77,0.00,,,0.00,,2013-03-02 03:42:00,
2013-03-01 21:52:00,36.0,29.0,30.19,ENE,57,1.0,3.0,77,0.00,,,0.00,,2013-03-02 03:52:00,
2013-03-01 22:01:00,35.0,29.0,30.18,ENE,57,0.0,2.0,78,0.00,,,0.00,,2013-03-02 04:01:00,
2013-03-01 22:11:00,35.0,29.0,30.18,ENE,57,0.0,2.0,78,0.00,,,0.00,,2013-03-02 04:11:00,
2013-03-01 22:21:00,35.0,29.0,30.18,ENE,58,0.0,2.0,78,0.00,,,0.00,,2013-03-02 04:21:00,
2013-03-01 22:32:00,35.0,29.0,30.18,ENE,58,0.0,0.0,80,0.00,,,0.00,,2013-03-02 04:32:00,
2013-03-01 22:42:00,35.0,29.0,30.18,ENE,58,0.0,0.0,80,0.00,,,0.00,,2013-03-02 04:42:00,
2013-03-01 22:51:00,35.0,30.0,30.18,ENE,58,0.0,0.0,81,0.00,,,0.00,,2013-03-02 04:51:00,
2013-03-01 23:01:00,34.0,30.0,30.18,ENE,58,0.0,0.0,84,0.00,,,0.00,,2013-03-02 05:01:00,
2013-03-01 23:12:00,34.0,30.0,30.18,ENE,58,0.0,0.0,84,0.00,,,0.00,,2013-03-02 05:12:00,
2013-03-01 23:22:00,35.0,31.0,30.18,ENE,58,0.0,2.0,86,0.00,,,0.00,,2013-03-02 05:22:00,
2013-03-01 23:32:00,35.0,31.0,30.17,ENE,58,0.0,0.0,84,0.00,,,0.00,,2013-03-02 05:32:00,
2013-03-01 23:42:00,35.0,31.0,30.17,ENE,58,0.0,0.0,84,0.00,,,0.00,,2013-03-02 05:42:00,
2013-03-01 23:52:00,35.0,32.0,30.18,ENE,58,0.0,0.0,87,0.00,,,0.00,,2013-03-02 05:52:00,